Location: Crescent
(42.8242°N, 73.7329°W)
Time: 13:35:16
(UTC+00:00)

Vanguard 2 Rocket - Pass Details

Date: 19 February 2026
Orbit: 553 x 3286 km, 32.9° (Epoch: 13 March)

Event Time Altitude Azimuth Distance (km) Brightness Sun altitude
Rises 23:23:37 0° 274° (W) 5,654 13.0 -10.2°
Reaches altitude 10° 23:30:01 10° 254° (WSW) 3,977 11.6 -11.3°
Maximum altitude 23:34:40 14° 226° (SW) 3,127 10.4 -12.2°
Drops below altitude 10° 23:38:23 10° 197° (SSW) 3,022 9.8 -12.9°
Sets 23:42:06 0° 171° (S) 3,554 9.9 -13.5°
